This is the latest recevied weather packets stored in our database for station/object KC1DMA. If no packets are shown the sender has not sent any weather packets the latest 10 day(s).
| Time | Temp. | Humidity | Pressure | Rain* | Wind** | Luminosity | Snow |
|---|---|---|---|---|---|---|---|
| 1777309897 | 19.44° C | 44% | 1025.3 hPa | - | - | 837 W/m² | - |
| 1777309595 | 18.89° C | 40% | 1025.3 hPa | - | - | 841 W/m² | - |
| 1777309292 | 18.89° C | 43% | 1025.3 hPa | - | - | 840 W/m² | - |
| 1777308990 | 18.89° C | 42% | 1025.4 hPa | - | - | 840 W/m² | - |
| 1777308685 | 18.89° C | 40% | 1025.5 hPa | - | - | 841 W/m² | - |
| 1777308381 | 18.89° C | 41% | 1025.5 hPa | - | - | 840 W/m² | - |
| 1777308076 | 18.89° C | 49% | 1025.6 hPa | - | - | 837 W/m² | - |
| 1777307775 | 18.89° C | 41% | 1025.8 hPa | - | - | 839 W/m² | - |
| 1777307472 | 18.89° C | 41% | 1025.6 hPa | - | - | 839 W/m² | - |
| 1777307169 | 17.78° C | 44% | 1025.7 hPa | - | - | 836 W/m² | - |
| 1777306866 | 17.22° C | 44% | 1025.6 hPa | - | - | 833 W/m² | - |
| 1777306563 | 17.78° C | 46% | 1025.8 hPa | - | - | 828 W/m² | - |
| 1777306258 | 17.78° C | 46% | 1025.7 hPa | - | - | 824 W/m² | - |
| 1777305954 | 17.78° C | 43% | 1025.6 hPa | - | - | 821 W/m² | - |
| 1777305650 | 16.67° C | 45% | 1025.8 hPa | - | - | 819 W/m² | - |
| 1777305346 | 17.22° C | 45% | 1025.7 hPa | - | - | 815 W/m² | - |
| 1777305047 | 17.22° C | 48% | 1025.8 hPa | - | - | 808 W/m² | - |
| 1777304747 | 16.67° C | 46% | 1025.8 hPa | - | - | 806 W/m² | - |
| 1777304444 | 16.67° C | 45% | 1026 hPa | - | - | 801 W/m² | - |
| 1777304142 | 16.67° C | 47% | 1025.8 hPa | - | - | 794 W/m² | - |
| 1777303838 | 16.67° C | 45% | 1026 hPa | - | - | 788 W/m² | - |
| 1777303536 | 16.67° C | 50% | 1026 hPa | - | - | 782 W/m² | - |
| 1777303233 | 16.11° C | 46% | 1025.9 hPa | - | - | 773 W/m² | - |
| 1777302931 | 15.56° C | 49% | 1025.9 hPa | - | - | 764 W/m² | - |
| 1777302628 | 15.56° C | 46% | 1026.1 hPa | - | - | 756 W/m² | - |
* Rain since midnight (hover to see other rain measurements)
** Current wind speed in m/s (hover to see current wind gust speed)